[Date Prev][Date Next][Thread Prev][Thread Next] - [Date Index][Thread Index][Author Index]

2 Line ISS Keps 8-1



ISS
1 25544U 98067A   02213.15208321  .00021780  00000-0  27293-3 0  7161
2 25544  51.6363 187.1659 0008892  60.0581  49.9065 15.59654872211043


----
Via the sarex mailing list at AMSAT.ORG courtesy of AMSAT-NA.
To unsubscribe, send "unsubscribe sarex" to Majordomo@amsat.org



AMSAT Top AMSAT Home